Tracking 30995 objects as of 5-Jul-2025
HD Live streaming from Space Station
objects crossing your sky now

COSMOS 1275 DEB

Track COSMOS 1275 DEB now!
10-day predictions


NORAD ID: 14364
Int'l Code: 1981-053JA
Perigee: 803.8 km
Apogee: 844.2 km
Inclination: 82.8 °
Period: 101.2 minutes
Semi major axis: 7195 km
RCS: 0.0121 m2 (small)
Launch date: June 4, 1981
Source: Commonwealth of Independent States (former USSR) (CIS)
Launch site: PLESETSK MISSILE AND SPACE COMPLEX (PKMTR)

Note: This is SATELLITE DEBRIS
Your satellite tracking list
DELTA 1 DEB
Track 1 satellite(s)




NASA's NSSDC Master Catalog

Two Line Element Set (TLE):
1 14364U 81053HX  25186.46363315  .00002609  00000-0  11582-2 0  9994
2 14364  82.7778 199.7624 0028064 186.1314 173.9529 14.22504205178266
Source of the keplerian elements: AFSPC